Regional Weather Roundup
Issued by NWS

Home | Current Version | Previous Version | Graphics & Text | Print | Product List | Glossary On
Versions: 1 2 3 4 5 6 7 8 9 10 11 12 13 14 15 16 17 18 19 20 21 22 23 24 25 26 27 28 29 30 31 32 33 34 35 36 37 38 39 40 41 42 43 44 45 46 47 48 49 50
000
ASUS43 KMKX 230000
RWRWI

WISCONSIN REGIONAL WEATHER ROUNDUP
NATIONAL WEATHER SERVICE MILWAUKEE/SULLIVAN WI
700 PM CDT WED OCT 22 2014

NOTE: "FAIR" INDICATES FEW OR NO CLOUDS BELOW 12,000 FEET WITH NO
SIGNIFICANT WEATHER AND/OR OBSTRUCTIONS TO VISIBILITY.

WIZ001-002-006>008-014>016-023>028-230100-
NORTHWEST WISCONSIN

CITY           SKY/WX    TMP DP  RH WIND       PRES   REMARKS
SUPERIOR ARPT  PTCLDY    54  37  54 S6        30.06R
ASHLAND        PTCLDY    55  30  38 S6        30.09S
6HR MIN TEMP:  55; 6HR MAX TEMP:  62;

HAYWARD        PTCLDY    53  31  42 SE12G17   30.09S
6HR MIN TEMP:  52; 6HR MAX TEMP:  58;

SIREN          MOCLDY    55  34  45 SE9       30.06S
CUMBERLAND     MOCLDY    52  32  46 SE9       30.09S
RICE LAKE      CLOUDY    55  32  42 SE14      30.11F
CHETEK         CLOUDY    55  34  45 SE9       30.12R
LADYSMITH      CLEAR     53  33  47 SE9       30.15S
EAU CLAIRE     NOT AVBL
MENOMONIE      CLOUDY    56  34  42 SE10      30.11S
NEW RICHMOND   PTCLDY    54  37  54 SE9       30.07S
OSCEOLA        MOCLDY    55  39  55 SE9       30.08F
$$

WIZ003>005-009-010-017-018-230100-
NORTH CENTRAL WISCONSIN

CITY           SKY/WX    TMP DP  RH WIND       PRES   REMARKS
MANITOWISH WTR CLEAR     46  28  49 SE7       30.16R
ARBOR VITAE    CLEAR     49  28  43 S5        30.17S
WOODRUFF       CLEAR     49  28  43 S5        30.17S
RHINELANDER    CLEAR     45  30  55 S6        30.19F
6HR MIN TEMP:  45; 6HR MAX TEMP:  54;

EAGLE RIVER    CLEAR     46  26  45 S5        30.18S
LAND O LAKES   CLEAR     45  29  54 S3        30.18S
PHILLIPS       PTCLDY    50  31  49 S12       30.15S
TOMAHAWK       CLEAR     45  32  60 CALM      30.18F
MEDFORD        CLEAR     47  33  58 SE7       30.17F
MERRILL        CLEAR     47  32  56 SE7       30.20S
$$

WIZ029-030-035-036-043>047-230100-
CENTRAL WISCONSIN

CITY           SKY/WX    TMP DP  RH WIND       PRES   REMARKS
WAUSAU         CLEAR     48  34  58 SE8       30.19F
6HR MIN TEMP:  47; 6HR MAX TEMP:  55;

MOSINEE        CLEAR     46  36  66 SE6       30.21F
MARSHFIELD     CLEAR     47  35  63 E7        30.18F
6HR MIN TEMP:  47; 6HR MAX TEMP:  57;

STEVENS POINT  CLEAR     47  32  57 SE5       30.22S
WAUPACA        CLEAR     48  38  68 E3        30.23F
WAUTOMA        NOT AVBL
WISC RAPIDS    CLEAR     48  36  63 SE5       30.21F
6HR MIN TEMP:  48; 6HR MAX TEMP:  57;

CAMP DOUGLAS   NOT AVBL
$$

WIZ011>013-019>022-031-037>040-048>050-230100-
NORTHEAST WISCONSIN

CITY           SKY/WX    TMP DP  RH WIND       PRES   REMARKS
ANTIGO         CLEAR     40  33  74 SE8       30.21F
SHAWANO        CLEAR     48  37  66 CALM      30.25F
OCONTO           N/A     40  39  94 SE6       30.26F
STURGEON BAY   CLEAR     39  34  81 SE6       30.28F WCI  35
6HR MIN TEMP:  39; 6HR MAX TEMP:  48;

GREEN BAY      CLEAR     43  39  86 SE7       30.27R
6HR MIN TEMP:  43; 6HR MAX TEMP:  55;

MANITOWOC      NOT AVBL
APPLETON       PTCLDY    46  37  71 SE7       30.25S
CLINTONVILLE   CLEAR     45  36  70 CALM      30.24F
OSHKOSH        CLEAR     48  40  73 SE9       30.24S
6HR MIN TEMP:  47; 6HR MAX TEMP:  56;

$$

WIZ032>034-041-042-053>061-230100-
SOUTHWEST WISCONSIN

CITY           SKY/WX    TMP DP  RH WIND       PRES   REMARKS
LA CROSSE      CLEAR     56  36  47 SE9       30.16S
6HR MIN TEMP:  55; 6HR MAX TEMP:  61;

SPARTA         CLEAR     50  34  53 SE5       30.18F
VIROQUA        CLEAR     50  35  57 SE6       30.18S
BOSCOBEL       CLEAR     49  37  63 SE3       30.20S
6HR MIN TEMP:  48; 6HR MAX TEMP:  62;

PRAIRIE DU CHI CLEAR     53  37  53 SE6       30.18S
PLATTEVILLE    CLEAR     50  37  62 SE7       30.21F
$$

WIZ056-057-062-063-064-067-068-230100-
SOUTH CENTRAL WISCONSIN

CITY           SKY/WX    TMP DP  RH WIND       PRES   REMARKS
REEDSBURG      CLEAR     51  37  56 CALM      30.21S
BARABOO/DELLS  CLEAR     47  36  65 SE5       30.21F
LONE ROCK      NOT AVBL
MINERAL POINT  CLEAR     52  34  50 SE6       30.21S
MADISON        CLEAR     50  36  58 S3        30.23S
6HR MIN TEMP:  49; 6HR MAX TEMP:  59;

MIDDLETON      CLEAR     53  33  46 SE5       30.22S
WATERTOWN      CLEAR     47  38  71 E9        30.23S
MONROE         CLEAR     52  34  50 S7        30.22S
JANESVILLE     NOT AVBL
$$

WIZ051-052-058>065-066-070>072-230100-
SOUTHEAST WISCONSIN

CITY           SKY/WX    TMP DP  RH WIND       PRES   REMARKS
MILWAUKEE      PTCLDY    44  37  76 SE6       30.27F
6HR MIN TEMP:  44; 6HR MAX TEMP:  52;

WAUKESHA       CLEAR     45  37  76 SE7       30.27S
MILWAUKEE/TIMM CLEAR     45  37  76 SE6       30.28F
RACINE         CLEAR     44  37  76 SE7       30.29F
6HR MIN TEMP:  44; 6HR MAX TEMP:  52;

BURLINGTON     CLEAR     44  38  78 SE6       30.26S
KENOSHA        CLEAR     43  38  82 E7        30.27F
6HR MIN TEMP:  43; 6HR MAX TEMP:  54;

FOND DU LAC    CLEAR     46  38  73 SE10      30.25R
6HR MIN TEMP:  45; 6HR MAX TEMP:  57;

SHEBOYGAN      PTCLDY    42  37  82 SE3       30.28S
6HR MIN TEMP:  42; 6HR MAX TEMP:  53;

WEST BEND      CLEAR     41  36  81 E5        30.27S
JUNEAU         CLEAR     47  38  69 E8        30.25R
$$

LSZ147-162-230100-
LAKE SUPERIOR

STATION/POSITION TIME  TEMP    WIND        PRES    WAVE
                       AIR SEA DIR/SP/G            HT/PER
                 (UTC) (F)     (DEG/KT/KT) (MB)    (FT/S)
W MID LAKE BUOY  2250   48 46  100/ 10/ 12 1020.4F   1/ 3
DEVILS ISLAND    2300   49     100/  8/  9 1019.3F
PORT WING        2300   58     170/  2/  2 1018.3
SAXON HARBOR     2320   58     190/  4/ 10 1019.0F
$$

LMZ867-665-643>646-230100-
LAKE MICHIGAN

STATION/POSITION TIME  TEMP    WIND        PRES    WAVE
                       AIR SEA DIR/SP/G            HT/PER
                 (UTC) (F)     (DEG/KT/KT) (MB)    (FT/S)
CHAMBERS ISLAND  2300   42     130/  4/  6 1025.7S
N MID LAKE BUOY  2250   43 51  140/  6/  8 1026.4F   0
NORTHPORT PIER   2300   42     160/  4/ 10 1025.4F
SISTER BAY       2342             CALM       N/A
KEWAUNEE LAKESHO 2300   45     150/  6/  9 1024.6F
SHEBOYGAN LAKESH 2300   47 50  150/ 10/ 11 1026.2F
PORT WASHINGTON  2300   49     140/  8/ 10 1025.7F
ATWATER BUOY     2300   49     140/ 10/ 12 1026.1F
MILWAUKEE LAKESH 2300   48     140/  9/ 11   N/A
S MID LAKE BUOY  2250   47 54   60/  4/  6 1026.3F   1
KENOSHA   LAKESH 2300   48     130/  8/ 10 1025.4S
$$

TC  - TEMPERATURE IN CELSIUS
VSB - VISIBILITY IN STATUTE MILES
WCI - WIND CHILL INDEX
HX  - HEAT INDEX




USA.gov is the U.S. government's official web portal to all federal, state and local government web resources and services.